Showing default

COSMOS 1564, 15003

Orbit data source: Space-Track

COSMOS 1564, 15003 is a payload satellite owned by GUKOS (CIS) in LEO that was launched on Mon, 28 May 1984 UTC via a KOSMOS 11K65M launch vehicle from the Plesetsk Missile And Space Complex (PKMTR). Payload-class satellites include a variety of spacecraft equipped with specific instruments for various scientific and technological missions. These include communications satellites like Starlink; space stations such as the ISS; scientific satellites like the Hubble; Earth observation satellites from companies like Planet Labs, Umbra, and HawkEye 360; GPS; miniature CubeSats for education and research; and military/defense satellites.

Loading next visibility...
Identifier
15003, 1984-052F
Orbit
LEO
Country
Flag of CISCIS
Related business
Manufacturer
NPO PM
Mission
Spacecraft
Bus & Motor
STRELA-1 11F625, Unknown motor
Mass
60 kg wet, 60 kg dry
Launch date (UTC)
1984-05-28 (41 years ago)
Launch vehicle
KOSMOS 11K65M
Launch site
Plesetsk Missile And Space Complex (PKMTR)
Object type
Payload
Rocket body
Debris
Shape & HBR
Unknown
Radar Cross Section
Medium (>0.1 m² and <1 m²)

Expand to show TLE details & history
Last TLE update: 9 hours ago

TLE from 9 hours ago
0 COSMOS 1564
1 15003U 84052F   25302.93187461  .00000007  00000-0  14678-3 0  9995
2 15003  74.0089 126.2195 0033457 294.7446 179.0312 12.53581087895413
Epoch: 2025-10-29T22:21Z
TLE epoch observation values (Epoch: 2025-10-29T22:21:53.966Z)
Latitude
61.6976°
Longitude
-99.72989°
Altitude
1,485.925 km
Speed
7.115 km/s
True Right ascension
18h 16m 58s
True Declination
61° 34' 02"
Sunlit
Object was in daylight at epoch
Visualization orbit readout
Latitude
Unknown
Longitude
Unknown
Altitude
Unknown
Speed
Unknown
Apparent Right ascension
Unknown
Apparent Declination
Unknown
Sunlit
N/A
Visualization observer readout
Local Sidereal Time
03:24:58
Azimuth
Unknown
Elevation
Unknown
Doppler factor
Unknown
Orbital elements
Apogee altitude
1,473.566 km
Perigee altitude
1,421.203 km
Semi-major axis
7,825.521 km
Eccentricity
0.00335
Inclination
74.0089°
RAAN
126.2195°
Arg. of periapsis
294.7446°
True anomaly
179.03766°
Mean anomaly
179.0312°
Eccentric anomaly
179.03443°
Mean motion
3.13526 °/min
Orbital period
114.82 mins
BSTAR
0.00014678
Loading maneuver chart data...
Computing Atmospheric mass density...
Loading historical data...
Loading historical data...
Loading historical data...
Loading historical data...
Loading historical data...
Loading historical data...
Loading historical data...

Documentation

Showing up to 5 results
|